Terug naar catalogus

CZ-6A DEB

ActiefSSO
NORAD 54539·DEBRIS·🇨🇳 China

Gelanceerd Nov 11, 2022 vanaf Taiyuan Satellite Launch Center

Loading…

Volgende Passages (komende 24 uur)

TLE

VersSource: Space-Track

Epoch: Sep 14, 2026, 10:57 UTC

1 54539U 22151KP  26257.45691707 -.00000069  00000-0 -14412-4 0  9991
2 54539  98.8505 254.2747 0047553  76.6484 283.9982 14.09219263197222

Volg CZ-6A DEB in realtime met AllMySat

Download on the App Store